Location: Newark
(31.0436°N, 112.2008°E)
Time: 05:31:30
(UTC+00:00)

LightSail 2 - Pass Details

Date: 27 January 2020
Orbit: 697 x 724 km, 24.0° (Epoch: 27 February)

Event Time Altitude Azimuth Distance (km) Brightness Sun altitude
Rises 12:12:47 0° 258° (WSW) 3,077 9.7 -28.1°
Reaches altitude 10° 12:16:04 10° 237° (WSW) 2,164 8.4 -28.8°
Maximum altitude 12:19:09 16° 200° (SSW) 1,790 7.4 -29.5°
Enters shadow 12:20:05 15° 187° (S) 1,830 7.3 -29.7°
